Kona International At Keahole, HI

2:16 PM HST on February 20, 2017 (GMT -1000)
Kona International At Keahole | | Change Station
Active Advisory: Small Craft Advisory

Elev 46 ft 19.74 °N, 156.05 °W | Updated 23 minutes ago

Mostly Cloudy
Mostly Cloudy
81 °F
Feels Like 82 °F
N
13
Wind Variable Wind from SW

Today
High -- | Low -- °F
--% Chance of Precip.
Yesterday
High -- | Low -- °F
Precip. -- in
Pressure 30.09 in
Visibility 10.0 miles
Clouds Mostly Cloudy 4500 ft
Mostly Cloudy 6000 ft
Heat Index 82 °F
Dew Point 62 °F
Humidity 52%
Rainfall 0.00 in
Snow Depth Not available.
6:49 AM 6:26 PM
Waning Crescent, 30% visible
METAR PHKO 202353Z 22011KT 10SM BKN045 BKN060 27/17 A3008 RMK AO2 SLP187 T02720167 10278 20228 56019
Pressure 30.09 in
Visibility 10.0 miles
Clouds Mostly Cloudy 4500 ft
Mostly Cloudy 6000 ft
Heat Index 82 °F
Dew Point 62 °F
Humidity 52%
Rainfall 0.00 in
Snow Depth Not available.
6:49 AM 6:26 PM
Waning Crescent, 30% visible
METAR PHKO 202353Z 22011KT 10SM BKN045 BKN060 27/17 A3008 RMK AO2 SLP187 T02720167 10278 20228 56019

Get Your Daily Forecast Email!

Thanks for signing up!

Be on the lookout for a verification email in your inbox.

You'll start receiving the daily forecast at 8 AM.

×

10-Day Weather Forecast

Almanac

Astronomy

Feb. 20, 2017 Rise Set
Actual Time
Civil Twilight
Nautical Twilight
Astronomical Twilight
Moon
Length of Visible Light
Length of Day
Tomorrow will be .
, % of the Moon is Illuminated

Today's Extremes

State Highs State Lows

Community

WunderPhotos

Upload Photos

1,962,540 photos uploaded!

WunderBlog® & News

Nearby

Air Quality

  Air Quality AQ Index Pollutant
Not available.

Snow Depth

Station Depth Elevation

Earthquake Activity

City Distance Mag. Time & Date
Minimum magnitude displayed is 2.5.

Coastal Water Temperatures

Place Temperature

Stations

Nearby Weather Stations

Station Location Temp. Windchill Dew Point Humidity Wind Precip. Elev Updated Type
                   

Watches & Warnings

Small Craft Advisory
Issued: 3:28 AM HST Feb. 20, 2017 – National Weather Service

... Small Craft Advisory now in effect until 6 PM HST Tuesday...

* winds and seas... northeast to east winds 25 to 30 kt. Seas 8 to
12 ft.

Precautionary/preparedness actions...

A Small Craft Advisory means that winds speeds of 25 to 33 knots
and/or seas 10 feet or greater are expected to produce conditions
hazardous to small craft. Inexperienced mariners... especially
those operating smaller vessels... should avoid navigating in
these conditions.